Volver al catálogo

STARLINK-37556

ActivoComunicacionesSSO
NORAD 69660·PAYLOAD·🇺🇸 United States

Lanzado Jun 21, 2026 desde Vandenberg Space Force Base

Loading…

Próximos Pases (próximas 24 horas)

TLE

ActualizadoSource: CelesTrak SupGP

Época: Sep 14, 2026, 21:08 UTC

1 69660C 26143M   26257.88104167 -.00010707  00000+0 -33242-3 0  2570
2 69660  97.2845 301.0764 0001125  94.2314   7.8773 15.33439921    10

Sigue STARLINK-37556 en tiempo real con AllMySat

Download on the App Store